When you browse on this site, cookies collect data to enhance your experience and personalize the content and advertising you see.
Visit our Privacy Policy to learn more. By continuing to use the site, you agree to this use of cookies and data.
  • In Netherlands
  • List of Countries
  • For 7 days
  • Water Temperature
  • Satellite Maps
  • Weather Map
  • Weather Widgets
  • user-avatar
    Login

    Hourly Weather Kalgoorlie

    Today, 20 March, Wednesday

    Time Temperature Precipitation Wind Pressure Humidity
    00:00 +30°C° 0 mm 6 mps 727 mmHg 37%
    01:00 +29°C° 0 mm 6 mps 727 mmHg 38%
    02:00 +28°C° 0 mm 6 mps 727 mmHg 42%
    03:00 +28°C° 0 mm 6 mps 728 mmHg 43%
    04:00 +28°C° 0 mm 5 mps 728 mmHg 44%
    05:00 +27°C° 0 mm 5 mps 728 mmHg 45%
    06:00 +28°C° 0 mm 5 mps 728 mmHg 43%
    07:00 +29°C° 0 mm 5 mps 728 mmHg 40%
    08:00 +29°C° 0 mm 5 mps 729 mmHg 38%
    09:00 +32°C° 0 mm 6 mps 729 mmHg 33%
    10:00 +34°C° 0 mm 6 mps 729 mmHg 29%
    11:00 +36°C° 0 mm 6 mps 729 mmHg 24%
    12:00 +37°C° 0 mm 5 mps 728 mmHg 23%
    13:00 +37°C° 0 mm 4 mps 727 mmHg 22%
    14:00 +38°C° 0 mm 3 mps 727 mmHg 20%
    15:00 +38°C° 0 mm 3 mps 727 mmHg 20%
    16:00 +38°C° 0 mm 3 mps 727 mmHg 20%
    17:00 +38°C° 0 mm 2 mps 727 mmHg 20%
    18:00 +37°C° 0 mm 2 mps 727 mmHg 21%
    19:00 +36°C° 0 mm 2 mps 727 mmHg 23%
    20:00 +35°C° 0 mm 2 mps 727 mmHg 24%
    21:00 +35°C° 0.1 mm 3 mps 727 mmHg 26%
    22:00 +34°C° 0.1 mm 3 mps 727 mmHg 28%
    23:00 +33°C° 0.1 mm 3 mps 727 mmHg 30%

    Tomorrow, 21 March, Thursday

    Time Temperature Precipitation Wind Pressure Humidity
    00:00 +33°C° 0 mm 4 mps 727 mmHg 31%
    01:00 +32°C° 0 mm 5 mps 727 mmHg 31%
    02:00 +32°C° 0 mm 6 mps 727 mmHg 31%
    03:00 +30°C° 0.3 mm 6 mps 727 mmHg 37%
    04:00 +28°C° 0.3 mm 7 mps 727 mmHg 44%
    05:00 +27°C° 0.3 mm 8 mps 727 mmHg 50%
    06:00 +27°C° 1.1 mm 7 mps 727 mmHg 53%
    07:00 +27°C° 1.1 mm 7 mps 728 mmHg 56%
    08:00 +27°C° 1.1 mm 6 mps 728 mmHg 60%
    09:00 +27°C° 0.8 mm 5 mps 728 mmHg 61%
    10:00 +27°C° 0.8 mm 5 mps 728 mmHg 61%
    11:00 +27°C° 0.8 mm 4 mps 728 mmHg 62%
    12:00 +27°C° 1.8 mm 4 mps 728 mmHg 63%
    13:00 +27°C° 1.8 mm 4 mps 728 mmHg 63%
    14:00 +27°C° 1.8 mm 5 mps 727 mmHg 64%
    15:00 +26°C° 1.2 mm 5 mps 727 mmHg 64%
    16:00 +26°C° 1.2 mm 6 mps 727 mmHg 63%
    17:00 +26°C° 1.2 mm 6 mps 727 mmHg 63%
    18:00 +26°C° 0.1 mm 6 mps 727 mmHg 61%
    19:00 +26°C° 0.1 mm 6 mps 727 mmHg 60%
    20:00 +26°C° 0.1 mm 5 mps 728 mmHg 59%
    21:00 +26°C° 0.1 mm 5 mps 728 mmHg 59%
    22:00 +26°C° 0.1 mm 4 mps 728 mmHg 60%
    23:00 +25°C° 0.1 mm 4 mps 728 mmHg 60%

    Day after tomorrow, 22 March, Friday

    Time Temperature Precipitation Wind Pressure Humidity
    00:00 +25°C° 0 mm 4 mps 727 mmHg 62%
    01:00 +25°C° 0 mm 4 mps 727 mmHg 65%
    02:00 +25°C° 0 mm 4 mps 727 mmHg 67%
    03:00 +24°C° 0 mm 3 mps 726 mmHg 70%
    04:00 +24°C° 0 mm 3 mps 726 mmHg 73%
    05:00 +22°C° 0 mm 3 mps 726 mmHg 75%
    06:00 +24°C° 0 mm 2 mps 726 mmHg 71%
    07:00 +25°C° 0 mm 2 mps 727 mmHg 67%
    08:00 +25°C° 0 mm 1 mps 727 mmHg 63%
    09:00 +27°C° 0 mm 2 mps 727 mmHg 57%
    10:00 +29°C° 0 mm 3 mps 727 mmHg 50%
    11:00 +32°C° 0 mm 4 mps 727 mmHg 44%
    12:00 +33°C° 0 mm 3 mps 726 mmHg 41%
    13:00 +34°C° 0 mm 3 mps 726 mmHg 38%
    14:00 +35°C° 0 mm 3 mps 725 mmHg 35%
    15:00 +34°C° 0.7 mm 4 mps 725 mmHg 39%
    16:00 +33°C° 0.7 mm 5 mps 725 mmHg 42%
    17:00 +32°C° 0.7 mm 6 mps 726 mmHg 45%
    18:00 +30°C° 5.7 mm 5 mps 726 mmHg 51%
    19:00 +29°C° 5.7 mm 5 mps 727 mmHg 57%
    20:00 +28°C° 5.7 mm 4 mps 727 mmHg 63%
    21:00 +26°C° 0.1 mm 6 mps 728 mmHg 67%
    22:00 +23°C° 0.1 mm 8 mps 728 mmHg 72%
    23:00 +22°C° 0.1 mm 9 mps 728 mmHg 76%

    23 March, Saturday

    Time Temperature Precipitation Wind Pressure Humidity
    00:00 +21°C° 0 mm 9 mps 728 mmHg 77%
    01:00 +19°C° 0 mm 10 mps 728 mmHg 77%
    02:00 +19°C° 0 mm 10 mps 728 mmHg 77%
    03:00 +18°C° 0 mm 9 mps 728 mmHg 77%
    04:00 +18°C° 0 mm 9 mps 728 mmHg 76%
    05:00 +18°C° 0 mm 9 mps 729 mmHg 75%
    06:00 +17°C° 0.1 mm 8 mps 729 mmHg 74%
    07:00 +17°C° 0.1 mm 8 mps 730 mmHg 73%
    08:00 +16°C° 0.1 mm 8 mps 730 mmHg 72%
    09:00 +17°C° 0 mm 7 mps 730 mmHg 68%
    10:00 +20°C° 0 mm 7 mps 730 mmHg 63%
    11:00 +21°C° 0 mm 7 mps 730 mmHg 58%
    12:00 +22°C° 0 mm 6 mps 730 mmHg 54%
    13:00 +23°C° 0 mm 6 mps 729 mmHg 50%
    14:00 +26°C° 0 mm 5 mps 728 mmHg 46%
    15:00 +26°C° 0 mm 5 mps 728 mmHg 45%
    16:00 +26°C° 0 mm 5 mps 728 mmHg 44%
    17:00 +26°C° 0 mm 5 mps 728 mmHg 43%
    18:00 +26°C° 0 mm 4 mps 729 mmHg 44%
    19:00 +25°C° 0 mm 4 mps 729 mmHg 45%
    20:00 +23°C° 0 mm 4 mps 729 mmHg 46%
    21:00 +22°C° 0 mm 4 mps 730 mmHg 48%
    22:00 +22°C° 0 mm 5 mps 730 mmHg 49%
    23:00 +21°C° 0 mm 5 mps 730 mmHg 51%

    24 March, Sunday

    Time Temperature Precipitation Wind Pressure Humidity
    00:00 +20°C° 0 mm 5 mps 729 mmHg 54%
    01:00 +19°C° 0 mm 5 mps 729 mmHg 56%
    02:00 +17°C° 0 mm 5 mps 729 mmHg 59%
    03:00 +16°C° 0 mm 5 mps 729 mmHg 62%
    04:00 +16°C° 0 mm 5 mps 729 mmHg 65%
    05:00 +15°C° 0 mm 5 mps 729 mmHg 67%
    06:00 +15°C° 0 mm 5 mps 730 mmHg 67%
    07:00 +16°C° 0 mm 5 mps 730 mmHg 67%
    08:00 +16°C° 0 mm 5 mps 731 mmHg 67%
    09:00 +17°C° 0 mm 5 mps 730 mmHg 61%
    10:00 +20°C° 0 mm 5 mps 730 mmHg 54%
    11:00 +21°C° 0 mm 5 mps 730 mmHg 48%
    12:00 +23°C° 0 mm 5 mps 730 mmHg 41%
    13:00 +24°C° 0 mm 6 mps 729 mmHg 33%
    14:00 +26°C° 0 mm 6 mps 729 mmHg 26%
    15:00 +26°C° 0 mm 6 mps 729 mmHg 26%
    16:00 +26°C° 0 mm 6 mps 729 mmHg 25%
    17:00 +26°C° 0 mm 6 mps 729 mmHg 25%
    18:00 +24°C° 0 mm 7 mps 730 mmHg 31%
    19:00 +23°C° 0 mm 7 mps 730 mmHg 37%
    20:00 +22°C° 0 mm 8 mps 731 mmHg 43%
    21:00 +21°C° 0 mm 8 mps 731 mmHg 48%
    22:00 +19°C° 0 mm 9 mps 731 mmHg 53%
    23:00 +17°C° 0 mm 9 mps 732 mmHg 57%

    25 March, Monday

    Time Temperature Precipitation Wind Pressure Humidity
    00:00 +17°C° 0 mm 9 mps 732 mmHg 61%
    01:00 +16°C° 0 mm 9 mps 732 mmHg 65%
    02:00 +15°C° 0 mm 8 mps 732 mmHg 68%
    03:00 +13°C° 0 mm 8 mps 732 mmHg 70%
    04:00 +13°C° 0 mm 8 mps 733 mmHg 71%
    05:00 +12°C° 0 mm 8 mps 733 mmHg 72%
    06:00 +13°C° 0 mm 8 mps 733 mmHg 71%
    07:00 +13°C° 0 mm 8 mps 734 mmHg 69%
    08:00 +13°C° 0 mm 8 mps 734 mmHg 67%
    09:00 +16°C° 0 mm 8 mps 734 mmHg 60%
    10:00 +17°C° 0 mm 8 mps 734 mmHg 53%
    11:00 +20°C° 0 mm 8 mps 734 mmHg 46%
    12:00 +21°C° 0 mm 8 mps 733 mmHg 41%
    13:00 +22°C° 0 mm 9 mps 733 mmHg 37%
    14:00 +24°C° 0 mm 9 mps 732 mmHg 32%
    15:00 +23°C° 0 mm 9 mps 732 mmHg 32%
    16:00 +23°C° 0 mm 9 mps 732 mmHg 33%
    17:00 +23°C° 0 mm 9 mps 733 mmHg 34%
    18:00 +22°C° 0 mm 9 mps 733 mmHg 37%
    19:00 +21°C° 0 mm 9 mps 734 mmHg 40%
    20:00 +19°C° 0 mm 9 mps 734 mmHg 43%
    21:00 +18°C° 0 mm 9 mps 734 mmHg 47%
    22:00 +17°C° 0 mm 9 mps 734 mmHg 52%
    23:00 +16°C° 0 mm 9 mps 734 mmHg 56%
    Show more